Hourly Data Report for September 16, 2017

All times are specified in Local Standard Time (LST). Add 1 hour to adjust for Daylight Saving Time where and when it is observed.

POINT LEPREAU CS
NEW BRUNSWICK

45°04'23.040" N
66°26'57.090" W
6.00 m
8104201
71699
WPE

Download Data

Hourly Data (September 2017)
Hourly Data Report for September 16, 2017
Temp Definition
°C
Dew Point Temp Definition
°C
Rel Hum Definition
%
Wind Dir Definition
10's deg

Wind Spd Definition
km/h
Visibility Definition
km
Stn Press Definition
kPa
Hmdx Definition


Wind Chill Definition


Weather Definition


TIME
00:00 14.8 LegendMM 100   0   101.99     LegendNANA
01:00 14.2 LegendMM 100 15 2   101.97     LegendNANA
02:00 14.3 LegendMM 100 13 1   101.95     LegendNANA
03:00 14.4 LegendMM 100 22 3   101.95     LegendNANA
04:00 14.6 LegendMM 100 0 1   101.95     LegendNANA
05:00 14.8 LegendMM 100 30 3   101.95     LegendNANA
06:00 14.8 LegendMM 100 30 4   101.95     LegendNANA
07:00 14.4 LegendMM 100 19 5   101.97     LegendNANA
08:00 14.9 LegendMM 100 28 5   101.96     LegendNANA
09:00 15.8 LegendMM 100 30 5   102.04     LegendNANA
10:00 17.7 LegendMM 100 26 5   102.01     LegendNANA
11:00 17.6 LegendMM 100 22 5   101.98     LegendNANA
12:00 17.6 17.2 97 22 7   101.96     LegendNANA
13:00 18.3 17.2 93 22 8   101.94     LegendNANA
14:00 18.1 17.1 93 23 8   101.91     LegendNANA
15:00 17.7 16.6 93 22 9   101.89     LegendNANA
16:00 17.9 16.6 92 22 7   101.89     LegendNANA
17:00 15.9 15.6 98 28 5   101.85     LegendNANA
18:00 14.9 14.7 99 19 6   101.90     LegendNANA
19:00 14.4 14.3 99 25 2   101.91     LegendNANA
20:00 13.9 13.9 100 28 7   101.96     LegendNANA
21:00 14.1 LegendMM 100 25 5   101.96     LegendNANA
22:00 13.5 LegendMM 100 27 5   101.98     LegendNANA
23:00 13.5 LegendMM 100 10 2   102.02     LegendNANA

Notes on Data Quality.

Legend

  • E = Estimated
  • M = Missing
  • NA = Not Available
  • ‡ = Partner data that is not subject to review by the National Climate Archives
Date modified: